星链-11161 [DTC] (STARLINK-11161 [DTC] )

导读 | 星芒AI

STARLINK-11161 [DTC] 是SpaceX星链(Starlink)卫星互联网项目中的一颗低轨通信卫星。该卫星由SpaceX制造并发射,旨在为全球提供高速宽带互联网服务。作为星链计划的一部分,它运行在近地轨道,与其他数千颗卫星协同工作,以减少延迟并提高网络覆盖。该卫星采用先进推进系统和激光通信技术,支持高效数据传输。其编号中的“DTC”可能代表特定任务或配置代码。该卫星的发射和运行有助于扩展星链在偏远和农村地区的网络接入能力。

基本信息
目录编号:
60124
目录名称:
STARLINK-11161
国际标识:
2024-118M
轨道中心:
EARTH
卫星名称:
星链-11161 [DTC]
卫星全名:
星链-11161 [DTC] (STARLINK-11161 [DTC] )
卫星状态:
在轨 (已飞行492 天)
发射日期:
2024-06-24 UTC
国别 :
美国 (US)
星等 :
--
轨道信息
数据来源 国际轨道数据
星历时间: 2025-10-28T22:38:32+0800
19小时前
查看轨道信息
半长轴: 6737.833km
偏心率: 0.0001083
轨道倾角: 53.160°
近地点辐角 105.174°
升交点赤经 152.736°
平近点角 254.940°
近地点: 358.968km
远地点: 360.428km
周期: 91.736分钟
每日圈数: 15.697209
详细信息
固有亮度:
5
最大亮度:
0.3
卫星平台:
Starlink v2.0 mini
覆盖范围:
全球
运营商:
太空探索技术公司
运营商所在国:
美国
制造商(研发单位):
太空探索技术公司
制造商所在国:
美国
使用方式:
暂无
卫星简介
星链(Starlink)计划是由太空探索技术公司(SpaceX)提出的一个巨型低轨卫星互联网星座项目,计划在2019年至2024年间在太空搭建由约1.2万颗卫星组成的“星链”网络,其中1584颗将部署在地球上空550千米处的近地轨道,并从2020年开始工作。该卫星仍在工作。
2D轨道图
3D轨道图
轨道高度分析图
轨道倾角分析图
轨道综合分析图
查看轨道综合分析图